Weather in Novaya Dolina

Ukraine / Odesa District     46°24′11″N   30°35′02″E
temp.,
°C
wind,
m/s
gust,
m/s
humid.,
%
clouds,
%
prec.,
mm/h
press.,
hPa
HPBL,
m
27 october, wed
wed2700:00+9se356796 0.0 1028124
03:00+9se346273 0.0 102781
06:00+8sse236887 0.0 102786
09:00+9sse236623 0.0 1027148
12:00+13ssw33491 0.0 10271209
15:00+14sw33467 0.0 10251364
18:00+11s34610 0.0 102567
21:00+9s22760 0.0 102616
28 october, thu
thu2800:00+8nw22725 0.0 102620
03:00+7nnw34635 0.0 102643
06:00+6n33675 0.0 102639
09:00+8nnw347038 0.0 1027127
12:00+14nnw23495 0.0 1027620
15:00+16nw3439100 0.0 10251144
18:00+12wnw33508 0.0 102524
21:00+11nw33577 0.0 102625
29 october, fri
fri2900:00+10nw336319 0.0 102633
03:00+9nnw34675 0.0 102645
06:00+8n337850 0.0 102645
09:00+11nne367212 0.0 1027239
12:00+15ene33615 0.0 1027661
15:00+16ene335654 0.0 10261133
18:00+14ese236776 0.0 102679
21:00+12e22728 0.0 102720
30 october, sat
sat3000:00+11ene35770 0.0 102887
03:00+10ene35850 0.0 102873
06:00+9ene46870 0.0 102897
09:00+11e47820 0.0 1029425
12:00+14e67540 0.0 10291057
15:00+14e56510 0.0 10281066
18:00+11e34630 0.0 102863
21:00+10ese22810 0.0 102823
31 october, sun
sun3100:00+9e46820 0.0 1028128
03:00+8ene46850 0.0 102795
05:00+7ne47880 0.0 1027135
08:00+8ene510740 0.0 1026333
11:00+13ene68590 0.0 1025687
14:00+13e68570 0.0 1023885
17:00+10ese22710 0.0 102219
20:00+9e22855 0.0 102222